Home   Weather   Rainy River   Past weeks

Flag for Canada Past Weather in Rainy River, Ontario, Canada — Yesterday and Last 2 Weeks

Now
12 °F

Sunny.


Feels Like: 12 °F
Forecast: 6 / 22 °F
Wind: No wind

Location: Baudette International Airport

Current Time: Jan 16, 2017 at 11:44:11 am

Latest Report: Jan 16, 2017 at 10:53 am


Visibility: 10 mi

Pressure: 30.14 "Hg

Humidity: 80%

Dew Point: 7 °F

Location of Rainy RiverLocation

Past Weather in Rainy River — Graph

°F

Rainy River Temperature Yesterday

Maximum temperature yesterday: 27 °F (at 2:53 pm)
Minimum temperature yesterday: 0 °F (at 12:53 am)
Average temperature yesterday: 12 °F

High & Low Weather Summary for the Past Weeks

 TemperatureHumidityPressure
High27 °F (Jan 15, 2:53 pm)92% (Jan 10, 1:09 am)30.81 "Hg (Jan 10, 1:09 am)
Low-33 °F (Jan 13, 4:53 am)46% (Jan 15, 3:53 pm)29.41 "Hg (Jan 10, 12:06 pm)
Average0 °F75%30.11 "Hg
* Reported Jan 1 9:53 am — Jan 16 9:53 am, Rainy River, Weather by CustomWeather, © 2017

Note: Actual official high and low records may vary slightly from our data, if they occured in-between our weather recording intervals... More about our weather records

Advertising

Rainy River Weather History for the Previous 24 Hours

Scroll right to see more
 ConditionsComfort  
Time TempWeatherWind HumidityBarometerVisibility
9:53 am
Mon, Jan 16
7 °FSunny.6 mph83%30.12 "Hg8 mi
8:53 am3 °FIce fog.3 mph87%30.12 "Hg6 mi
7:53 am2 °FClear.3 mph80%30.11 "Hg8 mi
6:53 am6 °FClear.3 mph83%30.08 "Hg7 mi
5:53 am7 °FClear.5 mph87%30.08 "Hg8 mi
4:53 am5 °FClear.6 mph91%30.08 "Hg9 mi
3:53 am9 °FClear.No wind84%30.09 "Hg10 mi
2:53 am10 °FClear.3 mph76%30.09 "Hg10 mi
1:53 am12 °FClear.5 mph80%30.07 "Hg10 mi
12:53 am10 °FClear.6 mph80%30.07 "Hg10 mi
11:53 pm
Sun, Jan 15
10 °FClear.5 mph80%30.06 "Hg10 mi
10:53 pm13 °FClear.6 mph74%30.05 "Hg10 mi
9:53 pm14 °FClear.5 mph73%30.06 "Hg10 mi
8:53 pm15 °FClear.6 mph70%30.06 "Hg10 mi
7:53 pm18 °FClear.6 mph65%30.06 "Hg10 mi
6:53 pm19 °FClear.9 mph62%30.06 "Hg10 mi
5:53 pm20 °FClear.7 mph60%30.04 "Hg10 mi
4:53 pm25 °FClear.5 mph50%30.03 "Hg10 mi
3:53 pm27 °FSunny.9 mph46%30.03 "Hg10 mi
2:53 pm27 °FSunny.10 mph49%30.03 "Hg10 mi
1:53 pm25 °FSunny.12 mph50%30.06 "Hg10 mi
12:53 pm23 °FSunny.10 mph55%30.09 "Hg10 mi
11:53 am20 °FSunny.9 mph60%30.11 "Hg10 mi
Weather by CustomWeather, © 2017

See weather overviewHow to use our weather pages